Location: Bannatyne
(13.0833°N, 59.5333°W)
Time: 02:58:21
(UTC+00:00)

Explorer 11/Cluster Stage 4 - All Passes

Search period start: 29 January 2020 00:00
Search period end: 08 February 2020 00:00
Orbit: 467 x 1259 km, 28.8° (Epoch: 28 January)

Date Brightness Start Highest point End Pass type
(mag) Time Alt. Az. Time Alt. Az. Time Alt. Az.
29 Jan - 12:34:12 10° SW 12:39:58 42° SSE 12:46:55 10° ENE daylight
29 Jan - 14:22:09 10° WSW 14:29:03 65° NNW 14:37:05 10° ENE daylight
29 Jan - 16:12:24 10° WNW 16:19:13 32° NNW 16:26:24 10° NE daylight
29 Jan - 18:03:33 10° NW 18:10:02 25° N 18:16:21 10° NE daylight
29 Jan - 19:53:43 10° NW 20:00:47 32° NNE 20:07:08 10° ENE daylight
29 Jan - 21:43:10 10° WNW 21:50:46 68° NNE 21:56:58 10° ESE daylight
29 Jan - 23:33:31 10° W 23:39:31 35° SW 23:44:27 10° SSE visible
30 Jan - 12:23:26 10° SW 12:29:07 49° SSE 12:36:07 10° ENE daylight
30 Jan - 14:11:38 10° W 14:18:16 56° NNW 14:26:05 10° NE daylight
30 Jan - 16:01:58 10° WNW 16:08:31 30° N 16:15:29 10° NE daylight
30 Jan - 17:52:52 10° NW 17:59:22 25° N 18:05:47 10° NE daylight
30 Jan - 19:42:44 10° NW 19:50:05 35° NNE 19:56:44 10° E daylight
30 Jan - 21:32:10 10° WNW 21:39:59 78° NNE 21:46:26 10° ESE daylight
30 Jan - 23:22:50 10° W 23:28:42 30° SW 23:33:38 10° SSE visible
31 Jan - 10:28:25 10° SSE 10:30:09 11° SE 10:31:59 10° ESE daylight
31 Jan - 12:12:45 10° SW 12:18:19 58° SSE 12:25:15 10° ENE daylight
31 Jan - 14:01:11 10° W 14:07:31 49° NNW 14:15:03 10° NE daylight
31 Jan - 15:51:33 10° WNW 15:57:49 28° N 16:04:36 10° NE daylight
31 Jan - 17:42:10 10° NW 17:48:42 26° N 17:55:14 10° ENE daylight
31 Jan - 19:31:46 10° NW 19:39:22 39° NNE 19:46:18 10° E daylight
31 Jan - 21:21:11 10° WNW 21:29:10 90° NNE 21:35:51 10° ESE daylight
31 Jan - 23:12:12 10° W 23:17:52 26° SW 23:22:44 10° SSE visible
01 Feb - 10:16:54 10° S 10:19:24 14° SE 10:22:09 10° ESE daylight
01 Feb - 12:02:07 10° SW 12:07:32 69° SSE 12:14:22 10° ENE daylight
01 Feb - 13:50:47 10° W 13:56:48 42° NNW 14:04:00 10° NE daylight
01 Feb - 15:41:10 10° WNW 15:47:10 26° N 15:53:42 10° NE daylight
01 Feb - 17:31:28 10° NW 17:38:01 27° N 17:44:40 10° ENE daylight
01 Feb - 19:20:48 10° NW 19:28:35 44° NNE 19:35:49 10° E daylight
01 Feb - 21:10:14 10° WNW 21:18:19 79° SSW 21:25:12 10° ESE daylight
01 Feb - 23:01:39 10° W 23:07:02 22° SW 23:11:44 10° SSE visible
02 Feb - 10:05:43 10° S 10:08:40 16° SE 10:11:58 10° ESE daylight
02 Feb - 11:51:33 10° WSW 11:56:47 82° SSE 12:03:28 10° ENE daylight
02 Feb - 13:40:26 10° W 13:46:08 37° NNW 13:52:57 10° NE daylight
02 Feb - 15:30:47 10° NW 15:36:32 24° N 15:42:50 10° NE daylight
02 Feb - 17:20:44 10° NW 17:27:20 28° N 17:34:07 10° ENE daylight
02 Feb - 19:09:51 10° NW 19:17:47 49° NNE 19:25:17 10° E daylight
02 Feb - 20:59:20 10° WNW 21:07:27 69° SSW 21:14:29 10° SE daylight
02 Feb - 22:51:14 10° WSW 22:56:12 19° SW 23:00:38 10° S visible
03 Feb - 09:54:41 10° S 09:57:55 19° SE 10:01:38 10° E visible
03 Feb - 11:41:03 10° WSW 11:46:05 84° NNW 11:52:31 10° ENE daylight
03 Feb - 13:30:09 10° WNW 13:35:30 32° NNW 13:41:53 10° NE daylight
03 Feb - 15:20:25 10° NW 15:25:54 23° N 15:31:59 10° NE daylight
03 Feb - 17:10:01 10° NW 17:16:38 29° NNE 17:23:33 10° ENE daylight
03 Feb - 18:58:55 10° NW 19:06:58 55° NNE 19:14:41 10° E daylight
03 Feb - 20:48:28 10° WNW 20:56:32 60° SSW 21:03:41 10° SE daylight
03 Feb - 22:40:56 10° WSW 22:45:21 16° SW 22:49:23 10° S visible
04 Feb - 09:43:47 10° SSW 09:47:13 23° SE 09:51:12 10° E visible
04 Feb - 11:30:37 10° WSW 11:35:25 69° NNW 11:41:34 10° ENE daylight
04 Feb - 13:19:55 10° WNW 13:24:54 28° NNW 13:30:50 10° NE daylight
04 Feb - 15:10:02 10° NW 15:15:17 22° N 15:21:09 10° NE daylight
04 Feb - 16:59:16 10° NW 17:05:55 30° NNE 17:12:58 10° ENE daylight
04 Feb - 18:48:01 10° NW 18:56:07 61° NNE 19:04:03 10° ESE daylight
04 Feb - 20:37:40 10° WNW 20:45:37 52° SSW 20:52:50 10° SE daylight
04 Feb - 22:30:51 10° WSW 22:34:31 14° SW 22:37:56 10° S visible
05 Feb - 09:32:58 10° SSW 09:36:31 28° SE 09:40:41 10° E visible
05 Feb - 11:20:13 10° WSW 11:24:48 56° NNW 11:30:36 10° NE daylight
05 Feb - 13:09:43 10° WNW 13:14:20 25° N 13:19:47 10° NE daylight
05 Feb - 14:59:39 10° NW 15:04:41 22° N 15:10:21 10° NE daylight
05 Feb - 16:48:31 10° NW 16:55:11 32° NNE 17:02:22 10° ENE daylight
05 Feb - 18:37:09 10° WNW 18:45:14 69° NNE 18:53:20 10° ESE daylight
05 Feb - 20:26:55 10° WNW 20:34:41 45° SSW 20:41:54 10° SE daylight
05 Feb - 22:21:10 10° SW 22:23:42 12° SW 22:26:07 10° SSW visible
06 Feb - 09:22:14 10° SW 09:25:51 34° SSE 09:30:07 10° E visible
06 Feb - 11:09:53 10° W 11:14:13 45° NNW 11:19:38 10° NE daylight
06 Feb - 12:59:34 10° WNW 13:03:48 22° N 13:08:44 10° NE daylight
06 Feb - 14:49:14 10° NW 14:54:06 21° N 14:59:35 10° NE daylight
06 Feb - 16:37:47 10° NW 16:44:26 35° NNE 16:51:44 10° E daylight
06 Feb - 18:26:18 10° WNW 18:34:20 78° NNE 18:42:34 10° ESE daylight
06 Feb - 20:16:14 10° W 20:23:45 39° SSW 20:30:54 10° SSE daylight
07 Feb - 09:11:34 10° SW 09:15:13 44° SSE 09:19:30 10° ENE visible
07 Feb - 10:59:37 10° W 11:03:40 37° NNW 11:08:38 10° NE daylight
07 Feb - 12:49:27 10° NW 12:53:16 19° N 12:57:41 10° NE daylight
07 Feb - 14:38:47 10° NW 14:43:30 21° N 14:48:51 10° NE daylight
07 Feb - 16:27:03 10° NW 16:33:40 37° NNE 16:41:05 10° E daylight
07 Feb - 18:15:30 10° WNW 18:23:25 87° NNE 18:31:44 10° ESE daylight
07 Feb - 20:05:39 10° W 20:12:50 33° SSW 20:19:47 10° SSE daylight
